Skip Page Navigation
NASA JPL Caltech
NASA Logo - Jet Propulsion Laboratory + View the NASA Portal
+ Center for Near-Earth Object Studies
JPL Home Earth Solar System Stars & Galaxies Technology
JPL Solar System Dynamics
BODIES ORBITS EPHEMERIDES TOOLS PHYSICAL DATA DISCOVERY FAQ SITE MAP
IMPORTANT: The SSD Announcement email list is now available. Major changes are coming in the near future, including possible hostname and/or URL changes. To be notified of such changes, subscribe to this email list.

Please visit this page for more details.


JPL Small-Body Database Browser
Search: [ help ]  
233328 (2006 BE255)
Classification: Main-belt Asteroid          SPK-ID: 2233328
Ephemeris | Orbit Diagram | Orbital Elements | Mission Design | Physical Parameters | Discovery Circumstances | Close-Approach Data ]

[ show orbit diagram ]
Orbital Elements at Epoch 2458600.5 (2019-Apr-27.0) TDB
Reference: JPL 9 (heliocentric ecliptic J2000)
 Element Value Uncertainty (1-sigma)   Units 
e .1148229568693104 6.0579e-08  
a 2.585345377691126 2.3777e-08 au
q 2.288488376896227 1.5539e-07 au
i 2.967600388714296 6.067e-06 deg
node 156.8880125712669 0.0001219 deg
peri 269.3602629503871 0.0001251 deg
M 130.6115530684681 3.2297e-05 deg
tp 2458049.622070454388
(2017-Oct-23.12207045)
0.00013334 TDB
period 1518.365335817274
4.16
2.0946e-05
5.735e-08
d
yr
n .2370970882355048 3.2709e-09 deg/d
Q 2.882202378486026 2.6507e-08 au
  Orbit Determination Parameters
   # obs. used (total)      148  
   data-arc span      6328 days (17.33 yr)  
   first obs. used      2002-01-12  
   last obs. used      2019-05-11  
   planetary ephem.      DE431  
   SB-pert. ephem.      SB431-N16  
   condition code      0  
   norm. resid. RMS      .65536  
   source      ORB  
   producer      Otto Matic  
   solution date      2019-May-30 08:32:03  

Additional Information
 Earth MOID = 1.30422 au 
 Jupiter MOID = 2.38372 au 
 T_jup = 3.411 
[ show covariance matrix ]

Ephemeris | Orbit Diagram | Orbital Elements | Mission Design | Physical Parameters | Discovery Circumstances | Close-Approach Data ]

Physical Parameter Table
Parameter Symbol Value Units Sigma Reference Notes
absolute magnitude H 16.8   n/a MPO475904  

233328 (2006 BE255)          Discovered 2006-Jan-31 by Spacewatch at Kitt Peak
Reference: 20100228/Numbers.arcLast Updated: 2010-03-03

[ hide close-approach data ]
Close-Approach Data   ...sorted by Date/Time (TDB)
Date/Time (TDB) Time Uncertainty
(days_HH:MM)
Body Nominal Distance (au) Minimum Distance (au) Maximum Distance (au) V-relative (km/s) V-infinity (km/s) JD (TDB) Time Uncertainty (minutes) Semi-major axis (km) Semi-minor axis (km) range-LOV angle (deg) N-sigma BP Orbit Ref. Reference Modified
1925-Jul-29 18:45 00:04 Amphi 0.0448880966246523 0.0448447906318769 0.0449314032912237 3.19074301034511 3.19074297020764 2424361.281304086 4.23982508665774 2175.38548753358 71.7173570498537 7.26901836333006 12225.4660395074 T 9 CATAB v2.0e-lin.ifort 2019-May-30 08:32:04 2019-May-30 08:32
1931-Jul-07 15:14 00:02 Amphi 0.0445394614405694 0.0445057914404014 0.0445731353239929 2.86336162200555 2.86336157692888 2426530.134379675 1.76308413262282 1801.01572108804 86.2997424801143 -21.3811460710601 28328.4736379803 T 9 CATAB v2.0e-lin.ifort 2019-May-30 08:32:04 2019-May-30 08:32
2151-Dec-20 07:44 00:04 Amphi 0.0452042871746982 0.0451355138468979 0.0452730642108553 2.88330870864187 2.88330866453541 2507049.822035347 3.97582235060917 3486.17558617409 82.5630543926624 -10.6570255008895 15250.317794031 T 9 CATAB v2.0e-lin.ifort 2019-May-30 08:32:04 2019-May-30 08:32

Alternate Designations
 2006 BE255 = 2002 AN204 = 2008 RV72 
Ephemeris | Orbit Diagram | Orbital Elements | Mission Design | Physical Parameters | Discovery Circumstances | Close-Approach Data ]
ABOUT SSD CREDITS/AWARDS PRIVACY/COPYRIGHT GLOSSARY LINKS
FirstGov 2020-Jan-20 15:42 UT
(server date/time)  
NASA Home Page
Site Manager:   Ryan S. Park
Webmaster  Alan B. Chamberlin